Total_Precipitation_Accumulation
3.26 3.47 3.39 3.18 3.23 3.33 3.60 3.94 4.03 3.74 3.55 3.36 3.02 2.83 2.94 3.02 3.19 3.00 3.07 3.00 2.54 2.29 2.27 2.37 2.37 2.31 2.39 2.56 2.84 3.10 3.28 3.39 3.60 3.97 4.45 4.91 5.17 5.46
3.50 3.58 3.41 3.12 3.32 3.32 3.45 3.84 4.20 4.29 3.87 3.26 3.03 2.93 3.08 2.86 2.94 2.70 2.77 2.71 2.33 2.11 2.01 2.04 2.05 1.99 2.00 2.07 2.21 2.48 2.66 2.86 3.02 3.11 3.35 3.79 4.13 4.41
3.37 3.29 3.20 3.27 3.48 3.40 3.55 3.71 3.98 4.28 3.90 3.36 3.21 3.22 3.38 3.31 3.14 2.77 2.50 2.40 2.20 2.21 2.02 1.87 1.86 1.89 1.94 2.05 2.13 2.21 2.37 2.59 2.77 2.87 3.03 3.29 3.44 3.66
3.34 3.35 3.17 3.32 3.41 3.38 3.48 3.46 3.58 3.96 3.82 3.49 3.38 3.46 3.41 3.31 3.26 3.04 2.61 2.35 2.39 2.47 2.22 2.05 1.98 2.02 1.93 1.97 2.05 2.09 2.20 2.37 2.58 2.67 2.70 2.72 2.85 3.14
3.36 3.31 3.14 3.28 3.14 3.21 3.25 3.25 3.25 3.40 3.63 3.46 3.26 3.38 3.30 3.18 3.22 3.08 2.98 3.08 2.75 2.55 2.42 2.25 2.18 2.19 2.12 2.03 2.04 2.09 2.19 2.22 2.21 2.33 2.48 2.56 2.59 2.67
2.93 2.87 2.89 3.06 3.16 3.22 3.12 3.07 3.17 3.34 3.48 3.46 3.32 3.40 3.42 3.45 3.41 3.29 3.31 3.24 3.01 2.49 2.43 2.23 2.14 2.14 2.10 2.01 1.97 2.07 2.17 2.22 2.22 2.16 2.21 2.29 2.38 2.49
2.64 2.46 2.48 2.85 3.03 3.05 2.82 2.96 3.11 3.17 3.25 3.38 3.38 3.45 3.54 3.80 3.56 3.30 3.22 3.35 3.19 2.89 2.68 2.36 2.27 2.25 2.24 2.22 2.10 2.01 1.99 2.07 2.17 2.25 2.32 2.39 2.45 2.52
2.44 2.38 2.34 2.40 2.43 2.49 2.52 2.58 2.71 2.83 3.09 3.44 3.49 3.44 3.40 3.51 3.65 3.59 3.53 3.47 3.33 3.17 3.23 3.04 2.72 2.71 2.61 2.48 2.39 2.10 1.82 1.77 1.86 1.96 2.18 2.45 2.70 2.78
2.40 2.47 2.13 1.92 2.15 2.16 2.35 2.35 2.27 2.39 2.57 2.89 3.07 3.06 3.22 3.29 3.67 3.66 3.70 3.68 3.60 3.58 3.66 3.61 3.27 3.00 2.72 2.64 2.66 2.33 1.98 1.73 1.69 1.77 1.89 2.10 2.41 2.75
2.27 2.31 2.25 2.14 2.12 2.28 2.41 2.35 2.14 2.10 2.12 2.07 2.26 2.59 2.91 3.30 3.47 3.57 3.72 3.78 3.75 3.59 3.57 3.58 3.36 3.20 2.86 2.65 2.65 2.46 2.04 1.75 1.67 1.70 1.70 1.74 1.89 2.16
2.18 2.13 2.09 2.03 2.20 2.15 2.06 2.04 2.04 2.03 1.92 1.91 1.94 2.17 2.44 2.59 2.86 3.18 3.42 3.44 3.30 3.11 3.09 3.25 3.21 3.27 3.21 2.94 2.66 2.65 2.17 1.83 1.72 1.69 1.67 1.65 1.75 1.90
2.17 2.14 2.03 1.88 1.96 1.91 1.79 1.91 1.90 1.93 2.07 2.04 1.89 1.85 1.91 2.12 2.29 2.36 2.76 3.04 2.88 2.78 2.58 2.71 2.73 3.03 3.23 2.88 2.62 2.65 2.43 2.16 1.93 1.84 1.79 1.76 1.82 1.71
2.18 2.09 2.04 1.96 1.77 1.74 1.70 1.72 1.80 1.91 2.06 2.13 2.05 1.92 1.98 2.12 2.07 2.06 2.33 2.69 2.80 2.55 2.39 2.71 2.71 2.80 2.91 2.76 2.57 2.51 2.46 2.41 2.28 2.12 2.03 1.96 1.95 1.87
2.31 2.27 2.22 2.04 1.79 1.75 1.66 1.62 1.68 1.61 1.58 1.78 1.85 1.78 1.82 1.89 1.96 1.98 2.12 2.30 2.48 2.45 2.54 2.76 2.83 2.88 2.88 2.76 2.63 2.51 2.36 2.27 2.35 2.50 2.55 2.60 2.38 2.28
2.33 2.45 2.24 2.00 1.81 1.63 1.64 1.69 1.60 1.45 1.50 1.57 1.58 1.62 1.65 1.77 2.01 2.21 2.35 2.50 2.53 2.32 2.19 2.33 2.54 2.80 2.95 2.74 2.49 2.49 2.58 2.40 2.34 2.50 2.58 2.63 2.66 2.66
2.19 2.29 2.18 2.01 1.85 1.69 1.66 1.66 1.57 1.58 1.70 1.68 1.68 1.76 1.85 1.96 2.11 2.22 2.40 2.59 2.63 2.34 2.22 2.26 2.43 2.75 2.84 2.64 2.52 2.43 2.59 2.70 2.51 2.62 2.78 2.76 2.75 2.76
2.30 2.26 2.20 2.08 1.95 1.84 1.83 1.85 1.89 1.91 1.89 1.88 1.94 1.95 1.98 2.04 2.13 2.26 2.43 2.56 2.55 2.30 2.15 2.28 2.45 2.76 2.86 2.85 2.73 2.46 2.50 2.55 2.52 2.64 2.91 2.91 2.83 2.80
2.31 2.17 2.28 2.25 2.11 2.02 2.01 2.02 2.04 1.99 1.99 2.08 2.09 2.09 2.09 2.12 2.17 2.25 2.33 2.38 2.41 2.38 2.32 2.35 2.62 2.91 2.99 2.82 2.51 2.39 2.33 2.29 2.43 2.68 2.75 2.74 2.58 2.50
1.94 1.95 2.10 2.16 2.08 2.05 2.03 2.01 1.93 2.00 2.12 2.10 2.06 2.12 2.15 2.15 2.23 2.32 2.39 2.47 2.45 2.40 2.42 2.54 2.69 2.83 2.81 2.57 2.32 2.11 2.16 2.23 2.38 2.56 2.58 2.48 2.32 2.30
1.72 1.80 1.89 1.98 2.00 2.02 2.05 2.07 2.02 2.03 2.07 2.09 2.09 2.15 2.22 2.24 2.27 2.29 2.28 2.37 2.49 2.49 2.51 2.50 2.55 2.60 2.58 2.58 2.53 2.33 2.15 2.30 2.40 2.38 2.33 2.31 2.25 2.24
1.63 1.69 1.75 1.79 1.84 1.91 1.92 2.00 2.03 2.02 2.01 2.05 2.02 2.06 2.13 2.18 2.23 2.24 2.23 2.35 2.43 2.44 2.44 2.36 2.40 2.69 2.82 2.89 2.68 2.39 2.34 2.42 2.48 2.41 2.43 2.50 2.38 2.28
1.67 1.69 1.68 1.70 1.77 1.87 1.96 2.01 2.02 2.05 2.10 2.10 2.09 2.12 2.15 2.20 2.23 2.27 2.32 2.37 2.39 2.39 2.41 2.48 2.61 2.80 2.91 2.85 2.63 2.55 2.64 2.64 2.65 2.57 2.39 2.35 2.19 2.03
1.64 1.63 1.60 1.59 1.63 1.74 1.83 1.91 2.00 2.07 2.08 2.12 2.20 2.21 2.17 2.17 2.15 2.23 2.28 2.34 2.40 2.49 2.63 2.68 2.66 2.65 2.66 2.69 2.65 2.57 2.51 2.62 2.70 2.64 2.38 2.25 2.05 1.80